Location: Honey Creek State Natural Area
(29.8555°N, 98.4942°W)
Time: 11:49:57
(UTC-05:00)

Hubble Space Telescope - Visible Passes

Search period start: 22 July 2018 00:00
Search period end: 01 August 2018 00:00
Orbit: 537 x 541 km, 28.5° (Epoch: 21 July)

Date Brightness Start Highest point End Pass type
(mag) Time Alt. Az. Time Alt. Az. Time Alt. Az.
22 Jul 3.7 03:53:17 10° E 03:53:17 10° E 03:53:21 10° E visible
22 Jul 1.0 05:28:40 29° WSW 05:30:20 48° SSW 05:34:19 10° ESE visible
23 Jul 1.2 05:19:23 39° SW 05:19:57 41° SSW 05:23:50 10° SE visible
24 Jul 1.7 05:10:19 32° S 05:10:19 32° S 05:13:19 10° SE visible
25 Jul 2.7 05:01:25 17° SSE 05:01:25 17° SSE 05:02:43 10° SE visible
26 Jul 2.5 21:51:22 10° SSW 21:53:11 17° S 21:53:11 17° S visible
27 Jul 1.9 21:40:34 10° SSW 21:43:56 24° SSE 21:44:14 24° SSE visible
28 Jul 1.7 21:29:54 10° SW 21:33:31 29° SSE 21:35:05 22° ESE visible
28 Jul 3.6 23:10:23 10° WSW 23:10:29 11° WSW 23:10:29 11° WSW visible
29 Jul 1.5 21:19:19 10° SW 21:23:06 35° SSE 21:25:45 17° ESE visible
29 Jul 3.1 23:00:01 10° WSW 23:01:07 18° WSW 23:01:07 18° WSW visible
30 Jul 1.3 21:08:47 10° SW 21:12:43 42° SSE 21:16:15 12° E visible
30 Jul 2.5 22:49:38 10° W 22:51:37 27° WSW 22:51:37 27° WSW visible
31 Jul 1.1 20:58:19 10° WSW 21:02:19 49° SSE 21:06:20 10° E visible
31 Jul 1.9 22:39:17 10° W 22:41:58 38° WSW 22:41:58 38° WSW visible
